Wind_Speed
12 12 11 11 11 10 10 9 10 11 11 10 10 10 11 11 11 11 12 13 13 14 15 15 16 17 17 18 19 20 20 20 21 21 21 20 19 18 18 18 18 18 17 16 17 18 17 15 14 12 11 10 8 7 7 7 7 7 7 7 6 6 5 5 4 4 4 3 3 3 3 3 2 2 2 2 2 2 2 2 2 2 2 2 2
12 12 12 12 11 11 9 8 9 10 11 10 10 10 11 11 11 11 11 12 13 13 14 15 15 16 17 18 19 19 19 20 20 21 20 19 18 17 17 17 17 17 17 16 16 18 17 15 14 13 12 10 9 8 7 7 8 8 7 7 6 5 5 5 4 4 4 4 4 3 3 3 3 2 2 2 2 2 2 2 2 2 2 3 3
12 12 12 12 12 11 9 8 9 10 10 10 11 11 11 11 11 11 11 12 12 13 14 14 15 15 16 17 18 18 18 19 20 20 19 17 16 16 15 15 16 17 16 16 16 17 17 15 14 13 12 11 10 8 8 8 8 8 7 7 6 5 5 4 4 4 4 4 4 4 3 3 3 2 2 2 2 3 3 3 3 2 3 3 4
11 12 12 12 11 10 9 9 9 10 10 10 11 11 11 11 11 11 11 11 12 13 14 14 14 14 15 16 17 17 18 18 19 19 18 16 15 15 14 15 15 16 16 15 15 15 17 16 14 13 12 12 10 9 8 7 7 7 6 6 5 5 4 4 4 4 3 3 3 3 3 3 3 3 3 3 3 3 2 3 3 3 3 3 4
11 12 12 12 11 10 10 9 10 10 10 10 11 11 11 11 11 12 12 12 12 13 13 13 14 14 14 15 16 17 17 17 17 17 16 15 14 14 14 14 14 14 15 15 14 14 15 16 15 13 12 11 11 10 8 7 7 6 6 5 5 4 4 4 4 4 3 3 3 3 3 3 3 4 4 4 3 3 3 3 3 3 3 3 4
11 11 11 11 11 11 10 10 10 11 11 11 11 11 11 12 12 12 12 13 13 13 13 13 13 14 14 15 16 16 16 15 16 16 15 13 13 14 14 13 13 13 14 14 13 13 13 14 14 13 12 11 10 10 8 7 6 5 5 4 4 4 4 3 3 3 3 3 3 3 3 3 3 4 4 4 4 4 4 4 3 3 3 3 4
12 11 11 11 11 11 11 10 10 10 10 11 11 12 12 12 13 13 13 13 13 13 12 13 14 14 14 14 15 16 15 15 14 15 14 12 12 13 13 12 12 12 13 13 13 12 12 12 13 13 13 11 10 10 8 7 6 5 4 3 3 3 2 2 3 3 4 4 4 4 4 4 4 4 4 5 5 5 5 5 4 4 4 4 4
13 11 10 10 11 11 11 11 10 10 10 11 12 12 12 13 13 14 14 14 14 13 12 13 14 14 14 14 15 15 15 14 14 14 13 11 11 11 11 11 11 11 11 12 12 12 11 11 11 12 12 12 10 10 9 7 6 4 3 3 2 2 2 2 2 3 4 5 6 6 6 5 5 5 5 6 5 5 6 6 5 5 4 4 4
13 12 10 10 10 11 11 10 10 10 10 11 12 12 13 13 14 14 14 14 13 12 12 13 14 13 14 14 15 15 15 14 14 13 12 10 10 9 10 10 10 10 10 11 11 11 11 10 10 10 11 11 11 10 9 8 6 5 4 3 3 3 3 3 3 3 4 5 7 7 8 7 7 6 6 7 6 6 6 7 7 6 5 5 5
13 12 11 10 10 10 10 10 9 10 10 11 12 12 13 14 14 14 14 14 13 12 13 14 13 14 14 14 14 15 15 15 14 13 12 9 8 9 9 9 9 9 9 9 10 11 10 10 9 9 9 10 10 10 9 8 7 5 4 4 3 4 4 4 4 4 5 5 7 8 9 9 8 7 7 7 7 7 7 7 7 7 6 6 6
14 12 11 10 9 10 10 10 9 10 10 11 12 13 14 14 14 14 13 13 13 13 14 14 13 14 14 14 14 14 15 16 15 13 11 9 8 8 8 8 8 8 8 9 9 10 10 10 10 9 8 8 9 10 9 8 8 6 5 4 4 4 4 4 4 5 6 6 7 8 9 9 8 7 7 7 7 7 8 8 7 7 7 6 7
14 12 11 9 9 10 10 10 9 10 10 11 12 13 14 14 13 13 13 13 14 14 14 13 13 14 14 14 14 15 16 16 15 13 11 9 8 8 8 8 8 8 8 9 9 10 10 10 10 9 8 8 8 9 9 8 8 7 5 4 4 4 4 4 4 5 6 6 6 7 8 8 7 7 7 7 8 8 8 8 8 7 7 7 8
14 12 10 9 8 9 10 9 9 10 11 11 12 13 13 13 13 14 14 14 15 14 13 13 14 14 14 14 15 15 16 16 16 13 11 10 8 7 7 7 8 8 9 9 9 9 9 9 10 9 8 7 7 8 8 8 8 8 7 6 5 5 5 4 5 5 5 6 6 6 7 8 7 7 7 8 8 8 8 8 8 7 7 8 10
13 11 9 8 8 9 9 9 9 10 11 11 12 13 13 14 14 14 15 15 15 14 13 13 14 15 15 15 15 16 16 16 16 14 12 10 9 8 7 8 8 8 9 8 8 9 10 10 9 9 8 7 7 8 8 8 9 9 8 7 6 6 5 5 5 5 5 5 6 7 8 8 8 8 8 8 8 8 8 9 8 8 9 10 11
12 9 8 8 8 9 9 9 10 10 11 12 12 13 14 14 15 15 15 15 14 13 13 14 15 15 15 16 16 16 16 17 16 14 12 11 10 10 9 8 8 8 8 8 8 8 9 10 9 9 8 7 7 8 8 8 9 9 9 9 8 7 6 5 6 6 6 6 7 7 8 8 8 9 9 9 9 9 9 9 9 10 10 11 11
10 9 8 9 9 9 9 9 10 11 11 12 12 13 14 15 15 14 14 14 14 13 14 15 15 15 16 16 17 17 16 17 17 15 13 11 11 11 10 9 9 8 8 8 8 8 8 9 9 9 8 7 7 8 9 8 8 10 10 10 10 9 8 7 6 6 7 6 7 8 8 8 9 9 10 9 9 9 9 10 10 11 11 11 11
9 9 9 9 9 9 9 10 11 11 11 12 12 13 14 14 14 14 14 14 14 14 14 15 15 15 16 17 17 17 17 17 17 16 14 12 11 11 11 11 10 10 9 8 8 8 8 8 9 9 9 8 7 7 8 8 8 9 9 10 11 11 10 9 8 8 8 8 8 8 9 9 9 10 10 10 10 10 10 10 10 11 11 11 11
10 9 10 10 10 10 10 10 11 11 12 12 12 13 14 14 14 14 14 14 14 14 14 15 15 15 16 16 17 17 18 17 17 16 15 14 13 12 12 12 12 11 10 9 8 8 8 9 9 10 9 8 7 7 7 8 8 8 8 9 10 11 11 11 10 9 10 10 9 9 9 9 9 10 11 11 10 10 10 10 10 10 11 11 11
10 10 10 10 10 10 10 11 11 11 12 12 12 13 13 13 13 14 14 14 14 14 14 14 15 15 16 17 17 17 18 17 17 17 16 15 14 14 12 12 13 13 12 11 9 8 7 8 10 11 10 9 8 7 8 8 9 8 8 9 9 10 11 12 11 11 11 11 11 11 10 10 9 10 11 11 11 10 10 10 10 11 11 12 11
11 10 10 10 10 10 11 11 11 12 12 12 12 12 13 13 13 14 14 14 14 14 14 14 14 15 16 17 17 17 17 17 17 17 16 16 15 15 14 13 13 13 12 12 11 9 8 7 9 11 12 11 9 8 8 9 9 9 9 9 9 10 11 12 12 12 12 12 13 12 12 11 9 10 11 11 11 11 11 11 11 11 12 12 12
12 11 11 10 11 11 12 12 12 12 12 12 12 11 12 12 13 13 14 14 14 14 14 14 14 15 16 16 16 17 17 16 16 16 15 16 16 16 16 14 13 13 12 12 11 10 8 7 8 10 12 12 11 10 9 9 10 10 10 11 10 10 11 11 12 13 13 13 14 14 13 12 10 10 10 11 11 12 12 12 12 12 12 12 12
13 12 11 11 12 12 13 13 13 12 12 11 11 11 11 11 12 13 13 14 14 14 14 14 14 15 16 15 15 16 16 15 15 15 14 15 16 17 16 15 13 12 11 11 10 9 8 7 8 8 10 12 13 11 10 10 11 11 11 12 11 11 11 12 12 13 14 14 14 14 14 13 12 10 10 11 11 12 12 12 13 13 13 13 13
14 12 12 13 13 14 14 13 12 12 11 11 10 10 10 11 11 12 13 13 13 14 14 14 15 15 15 15 14 15 15 14 14 14 14 14 16 17 14 12 12 12 11 11 10 9 8 8 8 9 10 12 13 13 12 11 12 13 12 12 13 12 12 12 13 13 14 14 14 15 15 15 13 12 11 11 11 11 12 12 13 13 13 13 14
14 14 14 15 15 14 14 13 12 11 11 10 9 9 9 10 11 12 12 12 13 14 14 15 15 15 14 14 14 14 14 13 13 14 14 14 15 15 13 11 11 11 11 11 11 11 11 10 9 10 11 12 14 14 14 13 13 14 15 14 14 14 13 13 13 13 14 15 15 15 15 16 15 13 12 11 11 11 12 12 13 13 13 14 14
16 16 16 16 15 14 13 13 12 11 10 9 8 8 9 10 11 11 11 12 13 14 14 15 15 14 14 14 14 13 13 13 13 13 14 14 14 14 13 13 12 11 11 12 12 12 11 11 10 10 11 12 14 15 15 15 14 15 16 17 16 16 15 14 13 13 14 16 16 16 16 16 16 15 13 12 11 11 12 12 13 13 13 13 13
18 17 16 15 14 13 13 13 12 11 9 8 7 7 8 9 10 11 11 12 13 14 14 15 15 14 13 14 14 13 13 13 13 13 14 14 14 13 13 13 13 12 12 12 11 11 11 10 10 10 11 12 13 15 16 16 16 16 17 18 18 18 17 16 14 14 14 15 17 17 17 16 16 16 14 13 12 11 12 12 13 13 13 13 13
18 16 15 14 13 13 12 12 11 10 9 8 7 7 7 9 10 10 11 12 13 14 14 14 14 13 12 13 13 13 13 13 13 13 13 14 14 14 13 13 12 12 12 11 11 11 11 10 10 10 10 10 12 14 16 16 16 17 18 19 20 20 19 18 16 15 14 15 17 18 18 17 17 16 15 14 13 12 11 12 12 13 13 13 12
17 16 15 14 13 13 13 12 11 10 9 8 7 7 7 8 9 10 11 12 13 14 14 14 14 13 12 12 13 13 12 12 12 12 13 13 14 13 13 13 12 12 11 11 10 10 10 10 10 10 10 9 10 11 14 16 16 17 19 20 21 22 22 20 18 17 15 15 16 18 18 18 17 17 16 15 14 13 12 12 12 12 12 12 12
17 16 15 14 14 14 13 12 10 10 10 9 9 8 7 7 9 10 11 12 13 14 14 15 15 14 13 12 12 12 12 12 12 12 13 13 13 12 12 12 12 12 11 10 10 10 10 11 12 13 12 12 11 11 12 15 16 17 19 21 23 23 22 22 20 18 17 16 16 17 18 18 18 18 18 17 15 14 13 12 12 12 12 12 12
18 16 15 14 14 14 13 12 10 10 10 10 10 9 8 7 9 10 11 11 12 14 15 15 15 14 13 12 12 12 11 11 11 12 13 13 13 12 12 12 12 12 11 11 11 11 11 12 14 14 14 14 14 13 14 14 16 17 18 21 24 24 23 22 22 20 18 17 17 17 18 19 18 18 18 18 17 15 14 13 12 12 12 12 13
19 17 16 15 14 14 13 12 11 11 11 11 10 10 9 8 9 10 11 12 13 14 15 15 15 14 13 12 11 11 11 11 11 12 12 13 13 13 12 12 12 12 11 11 11 11 12 13 14 15 15 15 15 15 15 15 17 18 19 21 24 26 25 23 23 21 19 18 18 18 18 18 18 18 18 18 18 17 16 14 12 12 12 12 12
19 18 17 15 14 14 13 12 11 11 11 11 11 11 11 10 10 10 11 12 13 14 15 15 15 14 12 11 11 10 10 10 11 12 12 13 13 13 13 13 13 13 12 12 12 12 12 13 14 15 16 16 16 16 15 16 17 18 20 22 23 26 26 24 23 22 21 19 19 19 18 18 18 18 19 19 19 18 17 16 13 12 12 13 12
20 18 17 15 15 14 13 12 11 11 11 11 12 12 12 11 11 11 12 13 14 15 15 15 14 12 11 11 10 10 10 10 11 11 12 12 12 13 13 13 14 14 14 13 13 13 14 14 15 16 16 17 17 17 16 17 17 18 20 22 22 24 26 25 24 23 22 21 19 19 19 19 19 19 19 19 19 19 19 17 15 13 13 13 12
20 18 16 15 14 13 13 11 11 10 11 11 12 12 12 12 12 11 12 14 15 15 15 14 12 11 10 10 10 10 10 10 10 11 11 11 12 12 13 13 14 15 15 15 15 15 15 16 17 17 17 17 18 17 17 18 18 19 20 21 21 22 24 25 25 24 23 22 20 19 19 19 19 19 19 20 20 20 19 19 17 15 13 13 13
19 18 16 14 13 12 12 11 10 10 11 12 12 12 13 13 12 12 13 14 15 15 15 14 12 10 10 10 10 10 10 10 10 11 11 11 11 12 12 13 14 15 16 16 16 16 16 17 17 18 18 18 18 18 19 19 19 19 21 21 21 22 22 25 25 25 24 22 20 19 19 20 20 20 20 20 20 20 20 20 19 17 14 14 14
17 16 16 15 14 11 10 9 10 11 12 12 12 12 13 12 12 13 14 15 15 15 14 13 11 10 10 10 10 10 10 10 11 11 12 12 12 13 13 14 14 15 16 16 16 17 17 18 17 18 19 19 19 20 20 19 20 21 22 23 23 22 22 24 26 26 25 23 22 21 20 20 20 20 20 20 20 20 20 20 20 18 16 14 14
16 15 16 16 15 12 10 9 9 10 12 12 12 12 12 12 13 14 14 15 15 14 13 12 11 10 10 10 11 11 11 12 12 12 13 13 13 14 14 15 15 16 17 17 17 18 18 19 19 18 19 20 21 21 20 20 20 21 22 24 23 23 23 24 26 26 25 24 24 23 22 21 20 20 20 20 20 20 20 21 21 20 18 16 15
17 16 17 16 14 13 12 10 9 10 12 12 12 13 13 13 14 14 14 14 14 13 13 12 11 11 11 11 11 11 12 13 13 13 14 14 15 15 14 15 16 17 17 18 18 19 19 20 20 20 20 21 22 22 22 21 21 22 22 24 24 23 23 23 26 27 25 25 25 26 26 24 23 22 21 20 21 20 19 21 21 21 20 18 16
19 18 18 16 13 11 11 10 11 11 12 13 13 14 14 14 14 14 14 14 14 13 13 12 12 11 12 12 12 12 13 14 14 14 15 16 17 17 16 16 17 18 18 19 18 19 20 20 21 21 21 22 23 24 24 24 24 24 23 24 24 22 22 21 22 26 27 27 27 28 28 28 26 25 23 22 22 21 20 21 22 22 21 20 17
20 19 18 16 13 11 11 11 11 12 12 13 14 14 14 14 13 13 13 13 13 13 13 13 12 12 13 13 13 14 14 15 15 16 16 17 18 18 17 17 17 18 19 20 20 20 20 20 20 21 21 22 23 24 25 25 25 26 25 24 24 22 22 22 22 24 27 29 30 30 29 29 29 28 27 25 24 23 22 21 22 23 23 22 20
20 20 19 17 14 12 12 12 12 12 13 13 13 14 14 13 12 12 13 13 13 13 13 13 13 13 14 14 14 15 15 15 16 17 17 18 19 19 18 18 18 19 20 21 21 21 21 21 20 20 21 21 22 23 24 24 24 25 25 24 23 23 22 23 24 25 26 29 31 32 31 30 30 31 30 29 27 25 24 24 24 24 24 23 22
20 20 19 17 15 13 13 13 13 13 14 14 14 14 13 12 12 12 12 12 13 13 14 14 14 14 15 15 15 15 15 16 17 17 18 19 19 19 19 19 19 19 20 21 22 22 22 22 21 21 21 21 21 22 22 23 23 24 25 24 23 24 23 23 25 27 28 29 29 31 32 31 31 32 32 32 30 28 28 27 26 25 26 25 24
21 20 19 18 16 15 15 15 14 15 15 15 15 14 13 13 13 13 12 12 12 13 14 14 15 15 16 16 16 16 16 16 17 18 18 19 19 19 20 20 20 20 21 21 22 23 23 23 22 22 22 22 22 23 23 22 22 23 23 23 23 23 23 24 26 28 30 29 29 29 31 32 34 34 33 33 32 31 31 29 27 27 27 27 26
21 21 20 19 18 18 17 16 16 16 15 15 14 14 13 13 13 13 12 12 13 13 14 14 15 16 16 17 16 16 16 16 17 18 19 19 19 20 21 21 21 21 21 22 22 23 23 23 23 23 23 23 23 24 24 23 23 23 23 23 23 22 23 26 27 28 30 31 30 30 30 32 34 34 34 34 33 33 33 32 31 29 28 28 28
22 22 21 21 20 20 18 18 17 17 16 15 15 14 14 14 14 14 13 13 14 14 14 15 15 16 17 17 17 17 17 17 18 19 19 19 20 20 21 22 22 22 22 22 23 23 24 23 23 24 23 23 23 24 25 26 25 25 24 23 24 24 24 26 27 28 30 31 31 31 31 31 31 33 34 34 34 34 34 33 33 32 30 29 28
22 22 22 22 21 20 19 18 18 17 16 16 15 15 15 15 15 15 15 15 15 15 15 16 16 16 17 17 17 17 17 18 18 19 19 20 20 21 22 22 23 23 23 23 23 23 24 24 25 25 25 24 24 24 25 26 26 26 26 25 25 26 26 26 26 27 30 32 31 30 31 31 30 31 33 34 35 35 35 34 34 33 32 31 29
21 21 21 21 20 19 18 18 17 17 17 16 15 15 15 15 15 15 16 16 15 16 16 16 17 17 17 17 17 18 18 18 19 19 19 20 21 21 22 23 23 24 24 24 24 24 24 25 26 26 26 26 25 25 25 26 26 27 27 27 26 27 28 28 27 27 28 30 32 31 30 30 31 31 31 33 36 36 36 36 36 34 33 32 31
20 20 20 20 19 18 18 17 16 16 16 15 14 14 15 15 15 16 16 16 16 16 16 17 17 17 18 18 18 18 19 19 19 19 20 20 21 22 22 23 23 24 24 24 24 24 25 26 26 27 27 27 27 26 26 26 26 26 27 27 27 28 29 29 29 28 27 27 30 31 30 30 31 31 30 32 35 36 37 37 37 35 34 33 32
19 19 19 19 18 18 17 17 16 15 15 14 14 15 15 15 16 17 17 17 17 17 17 17 18 18 19 19 19 19 19 19 20 20 21 21 21 22 23 23 23 24 24 24 24 24 25 26 26 27 28 28 27 27 26 26 26 26 26 26 27 28 29 29 29 29 28 27 28 29 30 31 31 30 31 33 35 37 38 38 38 36 34 33 32
19 19 19 18 17 17 17 17 16 15 15 15 15 15 15 16 17 17 17 17 17 17 17 18 18 19 19 20 20 20 20 20 20 20 21 22 22 23 24 24 24 24 24 24 25 25 25 26 26 27 27 28 28 27 27 26 26 27 27 27 27 28 29 29 29 29 29 28 28 29 31 32 32 30 32 34 37 38 38 39 39 37 34 33 32
20 20 19 18 17 16 16 16 15 14 14 15 15 15 16 17 18 17 17 17 17 17 18 18 18 19 19 20 20 20 21 21 21 21 22 23 23 24 24 24 24 24 24 25 25 26 26 26 27 27 27 27 28 28 27 27 27 27 27 27 28 29 29 30 30 29 29 30 30 29 32 34 34 33 33 34 37 39 38 38 39 38 36 35 33
Wind_Direction
306 304 307 311 316 321 327 333 336 336 331 327 329 332 337 339 343 349 355 360 1 1 1 3 6 8 8 9 10 9 7 5 4 4 5 8 12 12 12 14 16 16 16 17 17 16 15 16 15 12 9 9 14 18 21 22 21 23 26 28 29 27 29 41 45 45 45 47 52 56 55 52 54 58 69 75 70 50 35 23 13 358 338 323 315
303 300 304 308 313 317 322 329 333 334 330 325 325 326 331 335 339 344 350 355 356 356 358 2 6 9 9 10 11 9 7 4 3 2 4 8 12 13 13 15 17 17 17 17 18 17 17 18 17 13 9 8 10 13 19 22 22 23 26 28 29 28 26 30 33 36 36 37 35 39 44 42 40 38 45 53 49 40 26 7 350 338 332 330 322
298 297 300 305 310 313 316 321 325 329 326 321 320 321 326 331 335 339 344 348 350 352 355 0 6 8 7 9 10 9 6 4 2 359 2 8 12 13 14 17 19 18 17 17 18 18 20 21 19 15 9 5 7 11 16 20 23 24 26 28 27 27 25 23 20 19 22 25 24 24 29 30 25 16 12 19 27 25 11 347 329 327 328 327 323
293 293 296 301 306 308 309 309 314 320 319 316 315 317 322 326 329 332 336 342 345 348 353 359 4 4 3 5 7 7 5 3 0 358 2 6 10 14 15 18 20 19 17 16 17 19 20 21 20 16 9 5 5 8 11 16 21 24 28 31 31 29 24 17 10 5 6 10 11 12 14 15 10 1 356 357 5 5 351 331 322 322 326 324 322
288 289 292 296 301 304 304 302 303 307 311 311 312 314 318 322 324 326 331 337 341 344 350 357 359 358 358 1 3 4 5 2 359 357 2 5 7 14 17 18 19 19 17 15 15 17 19 20 19 16 10 7 6 6 7 10 15 22 27 30 32 34 29 19 8 356 348 346 348 353 357 358 353 347 346 345 344 344 337 326 320 320 324 326 324
281 282 286 292 298 302 304 302 298 299 305 308 309 311 314 318 320 323 328 333 337 341 348 353 353 352 354 358 359 1 2 1 358 357 2 4 5 12 17 17 16 17 16 14 13 13 15 17 17 16 12 9 8 5 3 4 9 15 19 24 29 30 27 19 6 350 335 325 321 324 327 333 334 334 334 333 331 332 330 322 318 323 328 328 327
277 278 284 292 298 301 304 302 298 298 302 306 307 308 312 315 317 321 326 331 335 339 345 348 347 346 349 354 356 357 358 358 357 357 360 3 5 9 14 14 13 15 16 14 11 11 11 11 13 13 12 10 8 4 359 357 0 5 7 7 13 18 16 7 354 340 327 317 309 307 306 309 313 317 318 318 321 323 320 317 317 320 323 325 325
279 280 286 293 297 298 302 303 301 300 303 305 306 307 310 313 315 320 325 330 333 337 342 343 342 342 346 351 352 353 353 353 354 356 359 2 4 5 9 11 9 10 14 13 11 9 8 7 7 9 10 9 6 2 356 352 353 353 348 341 335 334 331 323 319 313 310 308 304 302 300 298 301 303 305 308 311 313 311 312 312 310 311 314 316
280 281 286 290 292 296 301 304 303 302 303 304 305 306 308 311 315 320 326 329 331 334 337 337 338 338 342 347 348 348 349 350 351 354 358 0 360 360 4 7 5 5 8 10 9 8 7 4 2 3 6 6 3 358 352 348 348 345 332 318 313 309 305 296 288 288 292 299 301 299 296 294 294 295 298 303 305 307 309 310 307 304 303 306 306
277 278 281 283 289 297 302 303 301 301 301 303 305 305 307 310 314 319 324 327 328 330 332 334 334 334 338 343 344 344 345 347 349 352 355 357 356 355 357 359 358 358 1 3 5 7 6 3 0 0 2 1 360 356 348 345 344 339 326 312 305 303 303 301 295 291 292 297 298 296 292 289 288 291 296 299 302 306 308 305 302 301 301 303 305
271 273 275 280 290 299 304 302 298 298 300 303 304 304 305 308 311 316 321 322 323 325 328 330 330 331 335 339 340 341 342 345 348 350 351 352 350 350 350 349 347 348 353 357 0 3 3 2 2 1 359 356 356 352 345 341 340 335 324 309 298 294 293 295 296 296 296 296 295 294 290 286 285 290 296 301 304 305 302 298 296 297 299 304 308
264 268 271 280 294 301 302 298 294 295 298 301 301 302 302 304 306 310 314 316 317 321 324 326 325 328 333 336 336 338 341 343 345 348 349 349 344 341 342 340 338 336 343 350 354 358 358 360 4 3 357 351 351 349 343 339 337 333 324 309 295 286 283 282 283 290 296 296 295 295 290 285 286 293 299 302 302 299 295 292 291 289 293 301 306
258 264 270 284 296 298 296 291 289 291 295 297 297 296 296 297 301 305 309 311 313 316 319 321 323 326 331 333 334 336 340 341 342 345 346 343 338 333 331 331 330 329 333 340 346 352 353 355 1 2 357 349 344 343 342 341 336 332 326 313 295 284 280 279 280 286 295 297 297 297 293 289 292 296 298 297 295 293 291 287 283 281 286 296 301
255 261 272 287 294 292 288 283 283 286 289 290 291 291 292 294 299 304 307 308 310 313 316 319 321 325 329 331 333 335 338 339 340 343 342 339 333 326 323 322 321 320 323 329 336 344 348 349 354 357 354 346 339 334 338 343 337 331 331 322 306 289 285 287 291 295 299 300 301 302 301 300 300 298 296 294 292 290 286 281 276 276 283 291 295
253 263 274 284 286 283 279 275 277 281 284 286 288 290 292 296 301 305 306 307 308 310 314 318 320 324 328 331 332 333 336 336 337 339 338 337 331 324 319 314 311 312 313 316 324 333 340 343 344 346 347 341 333 328 331 341 337 331 333 330 317 301 292 290 296 301 300 299 301 304 304 303 303 300 297 295 292 289 283 278 274 277 285 291 293
254 264 272 276 275 272 268 269 272 277 282 285 288 291 295 299 303 306 305 306 307 308 314 319 321 324 329 331 331 332 334 334 333 334 334 335 331 323 315 308 302 301 302 303 309 319 329 333 333 336 338 334 325 323 325 332 332 329 330 330 323 311 301 294 296 298 294 291 293 297 300 302 303 302 299 296 291 286 282 280 281 284 289 292 293
254 260 265 265 262 261 261 265 270 276 281 284 288 292 296 300 304 305 304 305 306 309 316 320 320 323 328 331 332 332 333 331 329 328 329 330 327 320 310 304 297 292 292 292 296 305 315 320 321 324 328 327 318 314 318 321 321 321 324 326 322 316 308 301 299 297 292 285 284 290 296 301 304 303 301 297 291 285 283 284 287 290 292 294 295
248 252 254 254 254 255 259 264 269 274 278 283 286 290 294 299 302 303 304 305 306 311 317 319 319 322 327 330 332 332 331 328 325 324 326 325 323 317 307 300 295 289 285 283 284 290 299 307 309 311 317 322 315 306 307 311 309 309 313 316 316 313 309 303 298 297 293 286 282 286 293 300 305 305 303 299 294 290 289 291 292 294 295 297 299
240 245 246 248 251 253 257 262 267 273 278 282 285 289 294 297 300 301 303 305 307 311 316 318 317 319 324 329 331 332 331 328 324 323 324 322 319 317 309 298 293 288 285 281 277 276 283 294 300 302 307 313 313 304 300 302 301 297 298 302 305 305 304 299 294 291 290 288 283 284 290 297 303 305 302 299 295 294 295 296 297 298 298 299 301
234 238 241 245 248 252 257 261 265 271 276 280 284 289 293 296 299 301 303 305 307 310 314 315 315 317 323 328 329 331 330 328 326 324 324 321 317 316 312 300 289 283 280 278 274 269 269 279 290 295 300 304 308 303 296 297 298 294 290 290 293 295 295 294 291 287 286 285 282 282 286 291 297 301 300 297 295 295 298 299 298 298 299 298 300
231 234 239 244 249 253 255 258 262 268 274 279 283 288 293 296 298 301 303 304 306 309 311 312 313 316 322 326 326 327 329 329 327 325 324 320 316 315 312 303 290 281 276 272 268 264 261 262 273 285 293 297 301 299 293 291 294 292 285 282 285 287 288 289 288 286 283 282 280 278 280 285 290 293 295 295 295 296 298 300 299 297 297 298 298
230 235 240 246 249 251 252 254 260 266 273 278 281 286 291 294 297 300 302 304 306 308 309 310 313 317 321 324 323 324 326 326 325 324 322 318 317 318 313 304 293 283 276 270 261 256 253 251 258 273 286 293 297 297 292 288 290 290 284 278 278 281 284 286 286 285 282 281 280 278 277 279 282 286 289 291 291 292 296 300 300 298 297 297 298
232 237 242 245 245 246 249 252 257 263 269 272 276 283 289 294 299 303 304 305 306 307 308 310 314 317 320 320 320 321 322 321 320 319 318 317 319 323 321 312 299 286 277 270 262 258 257 258 266 274 282 290 295 298 295 290 288 290 286 279 276 277 278 281 284 284 281 279 277 276 276 275 277 282 286 289 289 290 293 298 300 300 300 300 299
233 237 240 242 242 244 246 250 253 257 261 265 271 280 289 298 305 308 309 308 308 307 308 311 313 316 317 316 317 318 318 316 314 314 316 318 321 326 329 326 317 301 286 276 270 267 266 269 276 279 281 285 289 294 296 292 287 287 287 283 279 278 277 277 281 282 281 278 276 274 274 274 275 278 282 285 288 289 292 296 299 302 304 304 302
232 235 238 240 242 243 245 246 248 251 254 259 265 276 293 306 312 313 312 310 309 308 309 311 312 314 314 313 314 315 315 313 311 312 315 317 320 322 324 323 321 314 301 290 283 278 274 276 279 282 282 282 284 287 290 291 287 284 284 285 282 280 279 278 279 280 279 277 276 274 271 271 272 274 277 280 283 286 289 293 298 302 305 305 304
232 235 238 241 243 243 243 244 246 249 250 252 259 276 298 313 319 317 314 311 309 309 309 310 311 313 312 311 312 313 313 313 312 312 313 314 315 316 317 318 319 316 311 304 298 291 287 287 288 289 289 286 285 285 286 287 285 281 279 281 282 281 281 282 281 279 278 276 275 275 273 271 270 270 273 276 278 280 284 289 296 301 303 305 305
234 237 238 240 241 240 241 242 245 248 246 246 254 275 299 316 321 319 315 311 309 308 309 310 312 312 311 310 311 312 313 312 311 310 311 312 314 316 317 320 321 319 316 312 306 299 294 293 295 297 296 292 288 286 285 283 282 279 276 277 279 282 283 284 285 281 279 277 275 275 275 273 271 270 270 272 275 276 279 284 290 296 300 303 305
235 235 237 239 238 237 239 241 244 244 239 240 248 264 291 311 318 319 316 312 309 309 310 311 312 312 310 309 309 310 310 308 308 312 313 313 315 318 321 323 324 319 315 312 308 302 296 295 299 301 300 299 296 291 288 286 283 278 276 275 276 280 283 285 286 285 282 279 277 276 276 276 274 271 269 269 271 274 276 280 284 291 297 300 303
233 234 237 238 237 237 239 242 244 241 236 237 245 256 278 302 314 317 314 311 310 310 312 312 313 313 310 308 306 306 305 305 310 315 315 315 317 319 323 326 323 318 316 314 309 303 297 296 297 299 300 299 297 295 293 291 288 282 276 274 274 275 279 283 285 285 284 281 279 278 277 277 275 273 271 269 269 273 275 278 282 289 296 300 302
232 235 239 240 239 240 241 243 244 240 237 239 245 254 268 290 305 310 310 309 308 309 310 312 313 314 310 307 306 304 304 308 313 316 315 316 318 321 326 328 322 318 319 317 312 307 302 300 300 301 302 301 298 296 294 291 289 286 279 273 273 273 274 278 281 284 284 282 279 277 277 276 275 274 271 270 270 272 275 277 281 286 293 298 300
232 236 239 241 242 242 242 242 242 240 240 241 245 252 261 277 291 299 305 308 308 308 308 311 314 313 310 308 307 306 306 309 312 314 315 317 320 324 329 329 322 320 322 320 316 314 310 306 304 304 304 305 304 301 297 294 290 289 286 278 272 271 272 274 277 281 282 280 277 275 275 275 274 273 272 271 271 272 274 276 279 282 287 293 297
233 236 239 242 244 244 242 241 241 242 242 242 245 249 256 267 281 292 302 307 307 307 308 310 313 313 310 308 307 307 306 306 310 312 314 316 319 323 327 326 322 321 324 323 321 321 318 314 310 307 305 304 304 302 298 295 292 291 290 287 276 268 268 271 273 277 280 279 277 274 275 275 274 273 271 270 270 270 273 276 278 280 283 289 295
234 238 241 245 245 243 242 240 241 243 243 242 243 247 252 261 274 289 300 306 308 307 308 310 311 311 309 307 306 304 303 304 308 311 312 313 315 317 320 322 321 321 324 325 324 323 322 321 318 314 309 305 303 302 299 295 292 291 291 292 287 272 263 265 269 271 276 278 277 276 275 276 274 272 270 269 269 268 270 273 276 278 281 285 291
234 238 241 243 242 241 240 237 238 241 242 240 241 244 249 257 270 287 299 305 307 308 308 308 308 309 307 306 304 302 302 305 307 308 309 310 311 313 316 318 319 321 322 324 324 322 320 319 318 314 310 307 303 301 301 298 296 298 297 294 294 285 265 259 264 266 269 273 277 277 274 274 273 272 270 268 268 268 268 271 273 275 278 282 287
233 235 235 235 234 234 236 232 233 240 241 240 240 243 248 256 268 286 299 303 305 307 307 306 305 305 304 303 302 302 304 304 304 304 306 307 308 310 313 315 316 317 318 319 320 319 316 314 312 311 309 307 304 300 299 299 299 302 303 297 294 291 270 255 259 262 263 267 270 272 270 270 271 271 270 269 268 269 269 270 270 272 274 278 282
229 230 230 229 228 226 227 226 229 236 239 240 240 243 248 255 270 287 296 300 303 305 306 306 303 301 299 298 299 301 302 301 300 302 304 306 307 308 310 313 314 315 315 315 316 315 313 312 310 309 308 306 303 300 297 298 301 299 298 298 295 292 274 254 255 260 263 266 265 265 266 266 267 269 269 269 269 269 270 270 270 270 271 274 277
228 229 229 228 228 225 225 229 232 235 238 238 239 244 249 257 274 287 292 297 302 304 304 303 300 296 293 291 293 296 299 300 300 302 305 306 306 306 308 311 313 314 314 314 315 314 314 313 311 310 308 305 302 300 299 298 299 297 294 295 293 292 281 257 252 260 264 266 264 262 264 265 265 264 265 269 269 268 270 271 270 270 269 270 273
229 228 230 230 230 230 232 237 241 237 236 237 239 244 250 262 275 284 290 296 300 300 300 299 297 295 291 288 289 293 297 299 301 303 305 305 304 304 306 308 311 313 314 314 314 314 315 314 313 311 308 305 303 301 302 301 298 295 292 291 291 293 290 268 253 258 263 266 265 263 263 265 264 260 260 263 265 266 268 270 270 270 270 269 269
226 227 230 232 231 235 239 243 247 243 237 237 239 244 253 264 274 281 289 294 296 298 299 299 298 295 290 289 289 292 296 297 298 300 302 304 304 305 306 307 310 312 312 311 311 312 313 314 312 310 309 307 306 304 303 303 300 297 293 290 290 290 291 280 265 263 265 266 266 265 265 264 263 259 257 258 261 264 268 270 270 269 270 269 267
224 225 228 229 230 237 240 241 244 242 236 236 239 246 255 263 271 279 288 291 294 297 298 299 297 293 289 287 288 291 294 294 296 298 300 303 303 304 305 307 310 310 310 310 310 310 310 311 310 308 308 308 307 306 306 306 304 301 297 292 290 286 283 280 276 274 273 269 267 266 265 265 263 260 258 259 261 264 265 267 268 267 268 268 266
224 226 226 227 230 234 234 234 236 235 234 236 241 248 254 261 269 279 286 289 293 295 296 296 294 292 290 287 287 288 289 291 293 296 298 300 301 302 304 305 307 307 307 308 308 309 309 309 307 305 305 305 306 306 307 308 306 303 301 297 292 287 282 279 277 275 272 270 269 268 266 265 264 262 261 261 262 264 264 264 267 267 267 267 266
225 226 226 227 232 232 230 231 233 234 236 240 245 248 252 259 268 277 282 284 288 290 291 292 292 291 289 286 286 286 287 289 292 295 297 298 299 300 302 303 304 305 305 306 306 306 306 306 305 304 304 305 306 307 307 307 306 303 302 302 296 290 285 281 277 272 269 268 270 270 268 265 264 263 262 261 262 262 262 263 265 266 267 267 266
224 225 226 229 232 231 229 232 236 240 240 242 243 245 250 258 267 273 276 278 281 284 286 288 288 287 286 285 285 285 287 290 292 295 297 297 299 300 302 302 303 304 303 304 303 303 304 304 304 304 305 307 308 309 308 307 306 305 304 304 300 294 288 280 275 272 271 269 269 269 270 268 264 261 260 261 260 259 261 262 263 264 265 265 264
223 225 226 229 231 232 231 232 238 244 244 241 241 245 253 260 267 271 273 275 277 280 282 283 284 285 285 285 286 287 289 291 293 295 296 297 298 298 300 301 301 302 302 301 301 301 302 303 304 305 306 308 310 311 310 309 308 307 306 305 303 299 292 283 277 274 272 271 269 269 271 271 268 261 257 259 259 258 260 260 260 261 262 263 262
222 224 226 228 231 231 232 233 239 246 244 240 241 248 256 261 267 271 273 276 278 280 281 282 283 284 285 286 287 289 291 293 294 295 295 295 296 297 298 300 301 301 300 299 299 299 301 303 305 306 307 309 311 311 311 311 311 308 308 307 304 300 294 287 282 277 274 271 269 269 270 272 272 265 257 256 258 258 258 258 258 259 260 260 261
220 222 224 227 230 231 233 236 242 247 242 239 244 253 260 264 269 272 274 276 279 281 283 284 284 284 285 286 288 290 291 292 293 293 293 293 295 296 298 300 301 301 300 300 299 301 303 306 307 307 307 308 309 310 310 310 311 310 309 308 305 301 296 292 286 281 276 273 270 268 267 269 273 271 262 256 256 257 257 256 256 257 258 258 259
218 221 224 227 230 233 236 240 244 245 241 242 249 256 261 265 270 272 274 277 280 283 284 286 287 287 287 287 288 290 291 292 293 293 293 293 295 297 299 300 301 301 302 301 302 304 305 306 307 307 308 308 308 308 308 309 310 309 308 308 306 303 300 297 292 286 279 275 273 268 266 268 271 273 267 257 254 256 256 256 256 257 257 256 257
219 222 225 229 233 236 239 241 243 243 243 247 253 256 260 266 271 273 276 279 281 284 286 288 289 289 288 288 289 291 293 293 294 294 293 294 296 297 299 300 301 301 301 302 303 304 304 304 306 307 307 307 307 307 307 308 309 308 307 307 307 304 302 299 295 290 282 276 274 271 268 267 268 271 272 263 257 255 255 255 255 255 256 255 255
221 222 225 230 233 236 238 238 240 242 247 252 254 256 261 267 272 274 278 282 284 286 288 289 290 290 290 291 292 293 293 293 293 294 294 295 296 297 298 299 299 300 300 301 302 302 302 302 304 306 306 307 307 306 307 308 309 309 307 307 307 305 303 300 295 291 286 279 274 272 270 267 265 269 272 268 263 258 255 254 254 253 254 252 251
219 219 222 224 227 230 233 235 238 243 248 251 253 258 263 268 272 275 279 283 285 286 287 288 289 291 292 292 293 293 293 293 293 293 293 294 296 297 297 298 298 299 300 301 301 301 301 301 303 304 306 307 307 307 308 309 310 310 309 308 307 306 304 302 297 293 288 283 277 272 270 269 265 266 269 268 266 261 255 254 253 252 253 252 250
216 217 218 218 221 224 229 234 238 244 248 250 255 260 265 269 272 275 278 280 281 282 284 288 290 292 292 293 293 293 294 294 294 295 295 295 296 297 297 298 299 300 301 301 301 300 300 301 302 304 305 306 306 307 308 310 311 312 311 309 307 305 303 301 299 295 289 285 281 276 272 270 266 266 271 271 267 261 257 255 254 250 250 251 251
Height
5883 5883 5882 5881 5881 5881 5881 5881 5881 5881 5882 5882 5881 5881 5880 5880 5880 5879 5879 5878 5877 5876 5875 5874 5873 5872 5871 5870 5869 5868 5867 5865 5864 5863 5862 5861 5860 5859 5858 5857 5856 5855 5855 5854 5853 5852 5851 5851 5850 5849 5849 5849 5848 5847 5847 5846 5846 5846 5846 5845 5845 5845 5844 5844 5844 5844 5844 5843 5843 5842 5842 5841 5841 5841 5841 5841 5840 5840 5840 5840 5840 5840 5840 5840 5840
5883 5882 5881 5881 5881 5881 5881 5881 5881 5881 5881 5881 5881 5880 5880 5880 5879 5879 5878 5878 5877 5876 5875 5874 5873 5872 5871 5870 5869 5868 5867 5865 5864 5863 5862 5861 5860 5859 5858 5857 5856 5855 5855 5854 5853 5853 5852 5851 5850 5850 5849 5849 5848 5847 5847 5847 5846 5846 5846 5846 5845 5845 5845 5844 5844 5844 5844 5844 5843 5842 5842 5842 5841 5841 5841 5840 5840 5840 5840 5840 5840 5840 5840 5840 5840
5882 5881 5881 5880 5880 5880 5880 5880 5880 5880 5880 5880 5880 5880 5880 5879 5879 5879 5878 5877 5877 5876 5875 5874 5873 5872 5871 5870 5869 5868 5866 5865 5863 5862 5861 5861 5860 5859 5858 5857 5856 5855 5855 5854 5853 5853 5852 5851 5850 5850 5849 5849 5848 5848 5847 5847 5847 5846 5846 5846 5845 5845 5845 5845 5845 5844 5844 5844 5843 5843 5842 5842 5842 5841 5841 5840 5840 5840 5840 5840 5840 5840 5840 5840 5840
5881 5880 5880 5880 5880 5880 5880 5880 5880 5880 5880 5880 5880 5880 5879 5879 5879 5878 5878 5877 5876 5875 5875 5874 5873 5872 5871 5870 5869 5867 5866 5865 5863 5862 5861 5860 5860 5859 5858 5857 5856 5855 5855 5854 5853 5853 5852 5851 5850 5850 5849 5849 5848 5848 5848 5847 5847 5846 5846 5846 5845 5845 5845 5845 5845 5844 5844 5844 5843 5843 5843 5842 5842 5841 5841 5841 5840 5840 5840 5840 5840 5840 5840 5839 5839
5880 5879 5879 5879 5879 5879 5879 5879 5879 5879 5879 5879 5879 5879 5879 5878 5878 5878 5877 5877 5876 5875 5875 5874 5873 5872 5870 5869 5868 5867 5866 5865 5863 5862 5861 5860 5859 5858 5858 5856 5856 5855 5855 5854 5853 5853 5852 5851 5851 5850 5850 5849 5849 5848 5848 5847 5847 5846 5846 5846 5846 5845 5845 5845 5845 5844 5844 5844 5844 5843 5843 5842 5842 5842 5841 5841 5841 5840 5840 5840 5840 5840 5839 5839 5839
5879 5878 5878 5878 5878 5878 5878 5878 5878 5879 5879 5879 5879 5878 5878 5878 5877 5877 5877 5876 5876 5875 5874 5873 5872 5871 5870 5869 5867 5866 5866 5865 5863 5862 5861 5860 5859 5858 5857 5856 5856 5855 5855 5854 5853 5853 5852 5852 5851 5850 5850 5849 5849 5848 5848 5847 5847 5847 5846 5846 5846 5845 5845 5845 5845 5845 5845 5844 5844 5843 5843 5843 5842 5842 5841 5841 5841 5840 5840 5840 5840 5839 5839 5839 5839
5878 5877 5877 5878 5878 5877 5877 5877 5878 5878 5878 5878 5878 5878 5877 5877 5877 5876 5876 5876 5875 5875 5874 5873 5872 5870 5869 5868 5867 5866 5865 5864 5863 5862 5860 5859 5858 5858 5857 5856 5856 5855 5855 5854 5853 5852 5852 5851 5851 5850 5850 5849 5849 5849 5848 5848 5847 5847 5846 5846 5846 5845 5845 5845 5845 5845 5845 5844 5844 5843 5843 5843 5842 5842 5841 5841 5841 5841 5840 5840 5840 5839 5839 5838 5838
5877 5876 5877 5877 5877 5876 5876 5877 5877 5877 5877 5877 5877 5877 5877 5877 5876 5876 5876 5875 5875 5874 5873 5872 5871 5870 5868 5867 5866 5865 5864 5863 5863 5862 5860 5859 5858 5858 5857 5856 5855 5855 5855 5854 5853 5852 5852 5851 5851 5850 5850 5849 5849 5848 5848 5848 5847 5847 5846 5846 5846 5845 5845 5845 5845 5845 5845 5844 5844 5844 5843 5843 5842 5842 5841 5841 5841 5841 5840 5840 5839 5839 5838 5838 5838
5876 5876 5876 5876 5876 5875 5876 5876 5876 5876 5876 5876 5876 5876 5876 5876 5875 5875 5875 5874 5874 5873 5872 5871 5870 5869 5868 5866 5865 5864 5863 5863 5862 5861 5860 5859 5858 5857 5857 5856 5855 5855 5854 5854 5853 5852 5852 5851 5850 5850 5850 5849 5849 5849 5848 5848 5847 5847 5846 5846 5846 5845 5845 5845 5845 5845 5844 5844 5844 5844 5843 5843 5842 5842 5841 5841 5841 5840 5840 5840 5839 5839 5838 5838 5838
5875 5875 5875 5875 5875 5875 5875 5875 5875 5876 5876 5876 5876 5876 5875 5875 5875 5874 5874 5873 5873 5872 5871 5870 5869 5868 5867 5866 5865 5863 5863 5862 5861 5860 5859 5858 5858 5857 5856 5856 5855 5854 5854 5853 5853 5852 5852 5851 5850 5850 5850 5849 5849 5849 5848 5848 5847 5847 5846 5846 5846 5845 5845 5845 5845 5844 5844 5844 5844 5843 5843 5843 5842 5842 5841 5841 5841 5840 5840 5839 5839 5839 5838 5838 5837
5873 5874 5874 5874 5874 5874 5874 5874 5875 5875 5875 5875 5875 5875 5874 5874 5874 5873 5873 5872 5872 5871 5870 5870 5868 5867 5866 5865 5864 5863 5862 5861 5860 5859 5859 5858 5857 5857 5856 5855 5855 5854 5854 5853 5852 5852 5851 5851 5850 5849 5849 5849 5849 5849 5848 5848 5847 5847 5846 5846 5845 5845 5845 5844 5844 5844 5844 5844 5843 5843 5842 5842 5842 5841 5841 5841 5840 5840 5839 5839 5839 5838 5838 5837 5837
5872 5872 5873 5873 5873 5873 5873 5873 5874 5874 5874 5874 5874 5874 5873 5873 5873 5872 5872 5871 5871 5870 5870 5869 5867 5866 5865 5864 5863 5862 5861 5860 5859 5859 5858 5857 5857 5856 5856 5855 5855 5854 5853 5853 5852 5852 5851 5850 5850 5849 5849 5848 5848 5848 5848 5848 5847 5847 5846 5846 5845 5845 5845 5844 5844 5844 5843 5843 5843 5842 5842 5842 5841 5841 5840 5840 5840 5839 5839 5839 5838 5838 5837 5837 5836
5871 5871 5871 5872 5872 5872 5872 5872 5873 5873 5873 5873 5873 5873 5873 5872 5872 5872 5871 5871 5870 5869 5869 5868 5866 5865 5864 5863 5862 5861 5860 5859 5859 5858 5858 5857 5856 5856 5855 5855 5854 5854 5853 5853 5852 5852 5851 5850 5849 5849 5848 5848 5848 5847 5847 5847 5847 5846 5846 5845 5845 5845 5844 5844 5844 5843 5843 5843 5842 5842 5842 5841 5841 5840 5840 5840 5839 5839 5839 5838 5838 5837 5837 5836 5836
5869 5869 5870 5871 5871 5871 5871 5872 5872 5872 5872 5872 5872 5872 5872 5871 5871 5871 5870 5870 5869 5868 5868 5867 5865 5864 5863 5862 5861 5861 5860 5859 5858 5858 5857 5856 5856 5855 5854 5854 5853 5853 5853 5852 5852 5851 5851 5850 5849 5848 5848 5848 5847 5847 5847 5847 5846 5846 5845 5845 5845 5844 5844 5844 5843 5843 5842 5842 5842 5841 5841 5841 5840 5840 5839 5839 5839 5838 5838 5838 5837 5837 5836 5836 5835
5867 5868 5869 5869 5870 5870 5870 5871 5871 5871 5871 5871 5871 5871 5871 5871 5870 5870 5869 5869 5868 5867 5867 5866 5864 5863 5862 5862 5861 5860 5859 5858 5857 5857 5857 5856 5855 5855 5854 5853 5853 5852 5852 5852 5851 5851 5850 5849 5848 5848 5847 5847 5847 5846 5846 5846 5845 5845 5845 5845 5844 5844 5843 5843 5843 5842 5842 5841 5841 5841 5841 5840 5840 5839 5839 5839 5838 5838 5838 5837 5837 5836 5836 5835 5835
5865 5866 5867 5868 5869 5869 5869 5870 5870 5870 5871 5871 5871 5870 5870 5870 5870 5869 5868 5868 5867 5866 5866 5865 5863 5862 5862 5861 5860 5859 5858 5857 5857 5856 5856 5856 5855 5854 5853 5853 5852 5852 5851 5851 5851 5850 5850 5849 5848 5847 5847 5846 5846 5845 5845 5845 5844 5844 5844 5844 5844 5843 5843 5842 5842 5842 5841 5841 5840 5840 5840 5840 5839 5839 5838 5838 5838 5837 5837 5837 5836 5836 5835 5835 5834
5864 5865 5866 5867 5867 5868 5869 5869 5869 5870 5870 5870 5870 5869 5869 5869 5869 5868 5868 5867 5866 5865 5865 5864 5863 5862 5861 5860 5859 5858 5857 5857 5856 5855 5855 5855 5854 5853 5853 5852 5851 5851 5850 5850 5850 5850 5849 5848 5848 5847 5846 5846 5845 5845 5844 5844 5843 5843 5843 5843 5843 5843 5842 5842 5841 5841 5841 5840 5840 5839 5839 5839 5838 5838 5838 5837 5837 5836 5836 5836 5836 5835 5835 5834 5834
5863 5864 5865 5866 5866 5867 5868 5868 5868 5868 5868 5869 5868 5868 5868 5868 5868 5867 5867 5866 5865 5864 5864 5863 5862 5861 5861 5860 5859 5858 5857 5856 5855 5854 5854 5854 5853 5852 5852 5851 5851 5850 5849 5849 5849 5849 5849 5848 5847 5846 5846 5845 5845 5844 5843 5843 5843 5842 5842 5842 5842 5842 5842 5841 5841 5840 5840 5840 5839 5839 5838 5838 5838 5838 5837 5837 5836 5836 5836 5835 5835 5835 5834 5834 5833
5862 5862 5863 5864 5865 5866 5867 5867 5867 5867 5867 5867 5867 5867 5867 5867 5867 5866 5866 5865 5864 5864 5863 5862 5861 5860 5860 5859 5858 5857 5856 5855 5854 5853 5853 5852 5852 5851 5851 5850 5850 5849 5848 5848 5848 5848 5848 5847 5846 5845 5845 5845 5844 5844 5843 5842 5842 5842 5841 5841 5841 5841 5841 5841 5840 5840 5839 5839 5839 5838 5838 5837 5837 5837 5837 5836 5836 5835 5835 5835 5835 5834 5834 5833 5833
5860 5861 5862 5863 5864 5865 5865 5866 5866 5866 5866 5866 5866 5866 5866 5866 5866 5865 5865 5864 5863 5863 5862 5861 5861 5860 5859 5858 5857 5856 5855 5854 5853 5853 5852 5851 5851 5850 5850 5849 5848 5848 5847 5847 5847 5847 5847 5847 5846 5845 5844 5844 5844 5843 5843 5842 5841 5841 5840 5840 5840 5840 5840 5840 5840 5839 5839 5838 5838 5838 5837 5837 5836 5836 5836 5835 5835 5835 5835 5835 5834 5834 5833 5833 5832
5859 5860 5861 5862 5863 5863 5864 5864 5864 5864 5864 5864 5864 5865 5865 5865 5865 5865 5864 5863 5862 5862 5861 5861 5860 5859 5858 5858 5857 5856 5855 5854 5853 5852 5851 5850 5850 5849 5848 5848 5847 5847 5846 5846 5846 5846 5846 5846 5845 5844 5843 5842 5842 5842 5842 5841 5841 5840 5840 5839 5839 5839 5839 5839 5839 5838 5838 5837 5837 5837 5837 5836 5836 5835 5835 5835 5834 5834 5834 5834 5834 5833 5833 5832 5831
5858 5858 5859 5860 5861 5861 5862 5863 5863 5863 5863 5863 5863 5863 5864 5864 5864 5864 5863 5862 5861 5860 5860 5860 5859 5858 5857 5857 5856 5855 5854 5853 5852 5851 5851 5850 5849 5848 5847 5846 5846 5845 5845 5845 5845 5845 5845 5845 5845 5844 5843 5841 5841 5841 5841 5840 5840 5839 5839 5838 5838 5838 5838 5838 5838 5838 5837 5837 5836 5836 5836 5836 5835 5835 5834 5834 5834 5834 5833 5833 5833 5833 5832 5831 5830
5856 5857 5858 5858 5859 5860 5861 5861 5862 5862 5862 5862 5862 5862 5862 5863 5863 5862 5862 5861 5860 5859 5859 5859 5858 5858 5857 5856 5855 5854 5853 5852 5852 5851 5850 5849 5848 5847 5846 5845 5845 5844 5844 5844 5844 5844 5845 5845 5845 5844 5843 5841 5840 5840 5840 5839 5839 5838 5838 5837 5837 5837 5837 5837 5837 5837 5836 5836 5836 5835 5835 5835 5835 5834 5833 5833 5833 5833 5833 5833 5832 5832 5831 5831 5830
5854 5855 5856 5857 5858 5858 5859 5860 5860 5861 5861 5861 5861 5861 5861 5861 5861 5861 5860 5860 5859 5858 5858 5858 5857 5857 5856 5855 5854 5853 5853 5852 5851 5850 5850 5849 5848 5846 5845 5845 5844 5844 5843 5843 5844 5844 5844 5844 5844 5844 5843 5841 5840 5839 5839 5839 5838 5837 5836 5836 5836 5836 5836 5835 5835 5835 5835 5835 5834 5834 5834 5834 5834 5834 5833 5832 5832 5832 5832 5832 5831 5831 5830 5830 5829
5853 5854 5854 5855 5856 5857 5858 5858 5858 5859 5859 5860 5860 5860 5860 5860 5860 5860 5859 5859 5858 5858 5857 5857 5856 5856 5855 5854 5853 5853 5852 5851 5851 5850 5849 5848 5847 5846 5845 5845 5844 5843 5843 5843 5843 5843 5843 5843 5843 5843 5842 5841 5840 5839 5838 5838 5837 5837 5835 5835 5834 5834 5834 5834 5834 5834 5834 5833 5833 5833 5833 5833 5833 5833 5832 5832 5831 5831 5830 5830 5830 5830 5829 5829 5828
5851 5852 5853 5854 5855 5855 5856 5856 5857 5857 5858 5858 5859 5859 5859 5859 5859 5858 5858 5858 5857 5857 5857 5856 5855 5855 5854 5853 5852 5852 5851 5850 5850 5849 5849 5848 5847 5846 5845 5845 5844 5843 5842 5842 5842 5842 5841 5842 5842 5842 5841 5841 5840 5838 5837 5836 5836 5835 5835 5833 5833 5833 5833 5833 5833 5833 5833 5832 5832 5832 5832 5832 5832 5832 5832 5831 5830 5829 5829 5829 5829 5829 5828 5828 5827
5850 5852 5852 5853 5853 5854 5854 5855 5855 5856 5856 5857 5857 5857 5857 5858 5858 5857 5857 5857 5856 5856 5856 5855 5855 5854 5853 5852 5852 5851 5850 5850 5849 5849 5848 5847 5846 5845 5845 5844 5844 5843 5842 5841 5841 5840 5840 5840 5840 5840 5840 5840 5839 5838 5836 5835 5835 5834 5833 5832 5832 5831 5831 5832 5832 5832 5832 5831 5831 5830 5830 5830 5830 5830 5830 5830 5829 5828 5828 5828 5828 5828 5827 5827 5826
5849 5850 5851 5851 5852 5852 5852 5853 5853 5854 5855 5855 5855 5856 5856 5856 5856 5856 5856 5855 5855 5855 5854 5854 5853 5853 5852 5852 5851 5850 5849 5849 5848 5848 5847 5847 5846 5845 5844 5844 5843 5842 5841 5840 5840 5839 5839 5838 5838 5838 5838 5838 5838 5837 5836 5834 5834 5833 5832 5831 5830 5830 5830 5830 5830 5830 5830 5830 5830 5829 5829 5829 5829 5829 5829 5829 5828 5827 5827 5827 5827 5827 5826 5826 5825
5848 5848 5849 5849 5850 5850 5850 5851 5852 5852 5853 5853 5854 5854 5855 5855 5855 5855 5854 5854 5854 5853 5853 5853 5852 5852 5851 5850 5850 5849 5848 5848 5848 5847 5847 5846 5845 5845 5844 5843 5842 5841 5840 5840 5839 5838 5838 5837 5837 5836 5836 5836 5836 5836 5835 5834 5832 5832 5831 5830 5829 5828 5828 5828 5829 5829 5829 5829 5829 5828 5828 5828 5828 5828 5828 5828 5828 5827 5826 5825 5826 5826 5825 5825 5824
5846 5847 5847 5848 5848 5849 5849 5850 5850 5851 5852 5852 5852 5853 5853 5854 5854 5853 5853 5853 5853 5852 5852 5851 5851 5850 5850 5849 5849 5848 5847 5847 5847 5846 5846 5845 5845 5844 5844 5843 5842 5840 5840 5839 5838 5837 5837 5836 5835 5834 5834 5834 5834 5834 5834 5833 5831 5830 5830 5829 5827 5827 5827 5827 5827 5827 5828 5827 5827 5827 5827 5826 5827 5827 5827 5827 5827 5826 5825 5824 5824 5824 5824 5824 5823
5844 5845 5845 5846 5847 5847 5848 5848 5849 5849 5850 5851 5851 5851 5852 5852 5852 5852 5852 5852 5851 5851 5850 5850 5849 5849 5848 5848 5848 5847 5846 5846 5846 5846 5845 5845 5844 5843 5843 5842 5841 5840 5839 5839 5838 5837 5836 5835 5834 5833 5832 5832 5832 5832 5832 5831 5830 5829 5828 5827 5826 5825 5825 5825 5825 5825 5826 5826 5825 5825 5825 5825 5825 5825 5825 5825 5825 5825 5825 5824 5823 5823 5823 5823 5822
5842 5843 5843 5844 5845 5846 5846 5847 5847 5848 5849 5849 5850 5850 5851 5851 5851 5851 5851 5850 5850 5849 5849 5848 5848 5847 5847 5847 5846 5846 5845 5845 5845 5845 5844 5844 5843 5843 5842 5841 5840 5839 5839 5838 5837 5837 5836 5834 5833 5832 5831 5830 5830 5830 5829 5829 5828 5827 5826 5825 5824 5823 5822 5822 5823 5823 5823 5823 5823 5823 5823 5823 5823 5823 5823 5823 5824 5824 5823 5823 5822 5822 5822 5821 5821
5840 5841 5842 5843 5843 5844 5844 5845 5846 5846 5847 5847 5848 5848 5849 5849 5850 5850 5850 5849 5849 5848 5847 5847 5846 5846 5846 5845 5845 5845 5845 5844 5844 5843 5843 5843 5842 5842 5841 5841 5840 5839 5838 5837 5837 5836 5835 5834 5833 5831 5830 5829 5828 5827 5827 5826 5826 5825 5824 5823 5822 5821 5820 5820 5820 5820 5820 5821 5821 5821 5822 5821 5821 5821 5821 5821 5821 5822 5822 5821 5820 5820 5820 5820 5820
5838 5839 5840 5841 5842 5842 5843 5843 5844 5845 5845 5846 5846 5847 5847 5848 5848 5848 5848 5848 5847 5846 5846 5845 5845 5844 5844 5844 5844 5844 5844 5843 5843 5842 5842 5842 5841 5841 5840 5840 5839 5838 5837 5836 5836 5835 5834 5833 5832 5830 5829 5828 5826 5825 5824 5824 5823 5822 5822 5821 5820 5819 5818 5818 5818 5818 5818 5818 5818 5819 5819 5819 5819 5819 5819 5819 5819 5820 5820 5819 5819 5818 5818 5818 5818
5836 5837 5838 5839 5840 5841 5841 5842 5843 5843 5844 5844 5844 5845 5845 5846 5846 5847 5847 5846 5846 5845 5844 5844 5843 5843 5843 5843 5842 5842 5842 5842 5842 5841 5841 5841 5840 5840 5839 5839 5838 5837 5836 5835 5834 5834 5833 5831 5830 5829 5827 5826 5825 5823 5822 5821 5821 5820 5819 5818 5817 5816 5816 5816 5815 5815 5815 5815 5816 5816 5816 5816 5816 5817 5817 5817 5817 5818 5818 5818 5817 5817 5816 5816 5817
5834 5835 5836 5837 5838 5839 5839 5840 5840 5841 5842 5842 5843 5843 5844 5844 5845 5845 5845 5844 5844 5843 5843 5842 5842 5841 5841 5841 5841 5841 5841 5841 5841 5840 5840 5839 5839 5839 5838 5837 5837 5836 5835 5834 5833 5832 5831 5830 5829 5827 5826 5824 5823 5822 5821 5820 5819 5817 5816 5816 5815 5814 5813 5813 5813 5813 5813 5813 5813 5813 5813 5814 5814 5814 5815 5815 5816 5816 5816 5816 5816 5815 5815 5815 5815
5833 5834 5834 5835 5836 5837 5838 5838 5838 5839 5840 5840 5841 5841 5842 5843 5843 5843 5843 5843 5842 5842 5841 5841 5841 5840 5840 5840 5840 5840 5839 5839 5839 5839 5838 5838 5838 5837 5836 5836 5835 5834 5834 5833 5832 5831 5830 5828 5827 5826 5825 5823 5821 5820 5819 5818 5817 5815 5814 5813 5813 5812 5811 5811 5811 5811 5811 5811 5811 5811 5811 5811 5812 5812 5812 5813 5813 5814 5814 5814 5814 5814 5813 5813 5813
5831 5832 5832 5833 5834 5835 5835 5835 5836 5837 5838 5838 5839 5840 5840 5841 5841 5841 5841 5841 5840 5840 5840 5840 5839 5839 5839 5839 5838 5838 5838 5838 5838 5837 5837 5836 5836 5835 5835 5834 5833 5833 5832 5831 5831 5829 5828 5827 5825 5824 5823 5822 5820 5818 5817 5817 5815 5814 5813 5811 5810 5810 5809 5808 5808 5808 5809 5809 5809 5809 5809 5809 5809 5810 5810 5810 5811 5811 5812 5812 5812 5812 5812 5811 5811
5829 5830 5830 5831 5832 5832 5833 5834 5834 5835 5836 5837 5838 5838 5839 5839 5840 5840 5840 5839 5839 5839 5838 5838 5838 5838 5838 5837 5837 5837 5837 5836 5836 5836 5835 5834 5834 5833 5833 5832 5832 5831 5830 5830 5829 5828 5827 5825 5824 5822 5821 5820 5818 5816 5815 5814 5812 5811 5810 5809 5808 5808 5807 5806 5806 5806 5806 5806 5806 5806 5806 5806 5806 5807 5807 5808 5808 5809 5809 5809 5810 5810 5810 5810 5809
5827 5827 5828 5829 5830 5831 5832 5832 5833 5833 5834 5835 5836 5837 5837 5838 5838 5838 5838 5838 5837 5837 5837 5837 5836 5836 5836 5836 5836 5836 5835 5835 5834 5834 5833 5832 5832 5831 5831 5830 5830 5829 5828 5827 5826 5826 5825 5824 5822 5821 5819 5818 5816 5814 5812 5811 5809 5808 5807 5806 5805 5805 5805 5804 5804 5804 5804 5804 5803 5803 5803 5804 5804 5804 5804 5805 5805 5806 5806 5807 5807 5807 5808 5808 5807
5824 5825 5827 5828 5829 5830 5830 5831 5831 5832 5833 5834 5834 5835 5835 5836 5836 5836 5836 5836 5836 5836 5835 5835 5835 5835 5835 5834 5834 5834 5834 5833 5833 5832 5831 5831 5830 5829 5829 5828 5828 5827 5826 5825 5824 5823 5822 5821 5820 5819 5818 5816 5814 5812 5810 5808 5807 5805 5804 5803 5802 5802 5802 5802 5802 5802 5801 5801 5800 5800 5800 5801 5801 5801 5802 5802 5803 5803 5803 5804 5805 5805 5805 5805 5805
5823 5824 5825 5826 5827 5828 5829 5829 5830 5830 5831 5832 5832 5833 5834 5834 5835 5835 5835 5835 5835 5834 5834 5834 5833 5833 5833 5833 5833 5832 5832 5832 5831 5830 5830 5829 5828 5827 5827 5826 5825 5825 5823 5822 5821 5820 5819 5818 5818 5816 5815 5814 5812 5810 5808 5806 5805 5803 5802 5801 5800 5800 5800 5800 5799 5798 5798 5798 5798 5798 5797 5798 5797 5798 5799 5799 5800 5800 5800 5801 5802 5802 5803 5803 5803
5821 5823 5824 5825 5826 5826 5827 5827 5828 5828 5829 5830 5831 5831 5832 5833 5833 5833 5834 5834 5834 5833 5833 5833 5832 5832 5832 5831 5831 5831 5830 5830 5829 5828 5828 5827 5826 5825 5825 5824 5823 5823 5822 5820 5819 5818 5817 5816 5815 5814 5813 5811 5810 5808 5806 5805 5803 5802 5800 5800 5799 5798 5798 5797 5796 5795 5794 5795 5795 5795 5794 5794 5794 5794 5796 5796 5797 5797 5797 5798 5799 5799 5800 5800 5800
5820 5821 5822 5823 5824 5824 5825 5826 5826 5827 5828 5828 5829 5830 5830 5831 5831 5832 5832 5832 5832 5832 5832 5832 5831 5830 5830 5829 5829 5829 5828 5828 5827 5826 5826 5825 5824 5823 5823 5822 5821 5821 5820 5818 5817 5816 5815 5814 5813 5812 5810 5809 5808 5805 5803 5802 5801 5799 5798 5797 5796 5796 5795 5794 5793 5792 5791 5791 5791 5791 5791 5791 5790 5791 5792 5793 5793 5794 5794 5795 5796 5796 5797 5797 5797
5818 5819 5820 5821 5821 5822 5823 5824 5824 5825 5826 5827 5827 5828 5829 5829 5830 5830 5830 5830 5830 5830 5830 5830 5829 5829 5828 5828 5827 5827 5827 5826 5825 5824 5824 5823 5822 5821 5821 5820 5819 5818 5817 5816 5815 5814 5812 5811 5810 5809 5808 5807 5806 5804 5801 5799 5798 5797 5796 5795 5793 5793 5792 5790 5789 5789 5787 5787 5787 5787 5787 5787 5787 5787 5788 5789 5790 5790 5791 5791 5792 5792 5793 5794 5794
5815 5816 5817 5818 5819 5820 5821 5822 5822 5823 5824 5825 5826 5827 5827 5827 5828 5828 5828 5828 5828 5828 5828 5827 5827 5827 5826 5826 5825 5825 5825 5824 5823 5823 5822 5821 5820 5819 5818 5817 5816 5816 5815 5814 5813 5811 5810 5809 5808 5807 5806 5805 5803 5802 5799 5797 5795 5794 5792 5792 5791 5789 5788 5788 5786 5786 5784 5783 5783 5783 5783 5783 5783 5783 5784 5785 5786 5786 5787 5787 5788 5789 5790 5791 5791
5812 5814 5815 5816 5817 5818 5819 5820 5821 5821 5822 5823 5824 5825 5825 5826 5826 5826 5826 5826 5826 5826 5826 5825 5825 5825 5824 5824 5824 5823 5823 5822 5822 5821 5820 5819 5818 5817 5816 5815 5814 5813 5812 5811 5810 5808 5807 5806 5805 5804 5803 5802 5800 5799 5797 5794 5793 5791 5789 5788 5787 5786 5785 5784 5783 5782 5781 5780 5779 5779 5779 5779 5779 5780 5780 5781 5781 5782 5783 5783 5784 5785 5786 5787 5788
5810 5811 5812 5814 5815 5816 5817 5818 5819 5820 5821 5822 5822 5823 5823 5824 5824 5824 5824 5824 5824 5824 5823 5823 5823 5822 5822 5822 5821 5821 5820 5820 5819 5819 5818 5817 5816 5815 5814 5813 5812 5811 5810 5809 5807 5806 5805 5804 5802 5801 5800 5799 5798 5796 5794 5792 5791 5789 5787 5785 5784 5782 5781 5780 5779 5778 5778 5777 5776 5775 5775 5775 5775 5776 5777 5777 5777 5778 5779 5779 5780 5781 5782 5783 5784
5807 5809 5810 5812 5813 5814 5815 5816 5817 5818 5819 5820 5820 5821 5821 5822 5822 5822 5822 5822 5822 5822 5821 5821 5821 5820 5820 5819 5819 5819 5818 5818 5817 5816 5815 5815 5814 5813 5812 5811 5810 5809 5807 5806 5805 5804 5803 5801 5800 5799 5797 5796 5794 5793 5791 5790 5788 5786 5784 5783 5781 5779 5778 5777 5775 5774 5774 5774 5773 5772 5771 5771 5772 5773 5773 5773 5774 5774 5774 5775 5776 5777 5778 5779 5780
5805 5807 5808 5809 5811 5812 5813 5814 5815 5816 5817 5818 5818 5819 5820 5820 5820 5820 5820 5820 5820 5820 5820 5819 5819 5818 5818 5817 5817 5816 5816 5815 5815 5814 5813 5812 5811 5811 5810 5809 5808 5807 5805 5804 5802 5801 5800 5799 5797 5796 5794 5793 5791 5790 5788 5787 5785 5783 5781 5779 5778 5776 5775 5773 5772 5771 5770 5770 5770 5769 5768 5768 5768 5769 5769 5769 5769 5769 5770 5770 5771 5774 5775 5775 5776
5803 5804 5805 5807 5808 5809 5811 5812 5813 5814 5815 5816 5816 5817 5818 5818 5818 5819 5819 5819 5818 5818 5818 5817 5817 5816 5816 5815 5815 5814 5814 5813 5812 5812 5811 5810 5809 5808 5807 5806 5805 5804 5803 5801 5800 5799 5797 5796 5794 5793 5792 5790 5789 5787 5785 5784 5782 5780 5778 5776 5775 5773 5772 5770 5769 5768 5767 5766 5765 5765 5765 5764 5764 5764 5764 5764 5764 5764 5765 5766 5767 5769 5770 5770 5772